Somerville, NJ

1:15 PM EST on December 11, 2019 (GMT -0500)
Somerset

Weather History for KSMQ - November, 2019

Change the Weather History Date:

Tuesday, November 12, 2019

  Actual Average Record
Temperature  
Mean Temperature 35 °F -  
Max Temperature 45 °F 52 °F 70 °F (1931)
Min Temperature 24 °F 34 °F 19 °F (1957)
Degree Days  
Heating Degree Days 30    
Moisture  
Dew Point 25 °F    
Average Humidity 66    
Maximum Humidity 97    
Minimum Humidity 37    
Precipitation  
Precipitation 0.07 in - - ()
Sea Level Pressure  
Sea Level Pressure 29.92 in    
Wind  
Wind Speed 6 mph (NW)    
Max Wind Speed 17 mph    
Max Gust Speed 25 mph    
Visibility 9 miles    
Events Rain    
Averages and records for this station are not official NWS values.
T = Trace of Precipitation, MM = Missing Value Source: NWS Daily Summary

Daily Weather History Graph

Daily Weather History Graph

Search for Another Location

Airport or City:

Astronomy

Nov. 12, 2019 Rise Set
Actual Time 6:41 AM EST 4:43 PM EST
Civil Twilight 6:12 AM EST 5:12 PM EST
Nautical Twilight 5:39 AM EST 5:45 PM EST
Astronomical Twilight 5:07 AM EST 6:17 PM EST
Moon 5:09 PM EST (11/12) 6:30 AM EST (11/12)
Length of Visible Light 11h 00m
Length of Day
10h 02m
Full, 100% of the Moon is Illuminated
Nov 12
Full
Nov 19
Last Quarter
Nov 26
New
Dec 4
First Quarter
Dec 12
Full

Hourly Weather History & Observations

Time (EST) Temp. Windchill Dew Point Humidity Pressure Visibility Wind Dir Wind Speed Gust Speed Precip Events Conditions
12:53 AM 42.1 °F - 39.0 °F 89% 29.75 in 10.0 mi Calm Calm - N/A   Clear
1:53 AM 42.1 °F 39.2 °F 39.0 °F 89% 29.73 in 10.0 mi NW 4.6 mph - N/A   Clear
2:53 AM 42.1 °F - 39.0 °F 89% 29.70 in 10.0 mi Calm Calm - N/A   Clear
3:53 AM 42.1 °F 40.2 °F 39.9 °F 92% 29.70 in - West 3.5 mph - N/A   Partly Cloudy
4:53 AM 44.1 °F - 41.0 °F 89% 29.69 in 10.0 mi Calm Calm - N/A   Clear
5:53 AM 44.1 °F - 42.1 °F 93% 29.70 in 8.0 mi Calm Calm - 0.00 in Rain Light Rain
6:53 AM 45.0 °F - 44.1 °F 97% 29.73 in 4.0 mi Calm Calm - 0.03 in Rain Light Rain
7:53 AM 44.1 °F 37.7 °F 39.9 °F 85% 29.80 in 6.0 mi NNW 12.7 mph - 0.02 in Rain Light Rain
8:09 AM 42.1 °F 36.1 °F 37.9 °F 85% 29.80 in 7.0 mi NNW 10.4 mph - 0.01 in Rain Light Rain
8:53 AM 39.0 °F 34.8 °F 35.1 °F 86% 29.81 in 10.0 mi NNW 5.8 mph - 0.02 in Rain Light Rain
9:53 AM 37.0 °F 28.5 °F 30.0 °F 76% 29.86 in 10.0 mi NW 13.8 mph 18.4 mph 0.00 in   Overcast
10:53 AM 37.0 °F 27.7 °F 27.0 °F 67% 29.91 in 10.0 mi NW 16.1 mph 21.9 mph N/A   Overcast
11:53 AM 35.1 °F 26.9 °F 24.1 °F 64% 29.93 in 10.0 mi NNW 11.5 mph - N/A   Overcast
12:53 PM 34.0 °F 24.6 °F 19.9 °F 56% 29.94 in 10.0 mi NNW 13.8 mph 23.0 mph N/A   Overcast
1:53 PM 33.1 °F 23.0 °F 19.0 °F 56% 29.96 in 10.0 mi NNW 15.0 mph 23.0 mph N/A   Overcast
2:53 PM 34.0 °F 26.0 °F 19.0 °F 54% 29.97 in 10.0 mi NNW 10.4 mph - N/A   Clear
3:53 PM 33.1 °F 22.2 °F 16.0 °F 50% 30.00 in 10.0 mi NNW 17.3 mph 25.3 mph N/A   Clear
4:53 PM 32.0 °F 23.6 °F 15.1 °F 50% 30.03 in 10.0 mi NW 10.4 mph 18.4 mph N/A   Clear
5:53 PM 30.9 °F 19.8 °F 12.0 °F 46% 30.06 in 10.0 mi NNW 16.1 mph 25.3 mph N/A   Clear
6:53 PM 30.0 °F 21.1 °F 12.0 °F 47% 30.10 in 10.0 mi NNW 10.4 mph - N/A   Clear
7:53 PM 28.0 °F 19.3 °F 6.1 °F 39% 30.13 in 10.0 mi NNW 9.2 mph - N/A   Clear
8:53 PM 26.1 °F 18.4 °F 8.1 °F 47% 30.16 in 10.0 mi NW 6.9 mph - N/A   Clear
9:53 PM 26.1 °F 15.6 °F 3.0 °F 37% 30.19 in 10.0 mi NNW 11.5 mph - N/A   Clear
10:53 PM 25.0 °F 15.5 °F 1.9 °F 37% 30.19 in 10.0 mi NW 9.2 mph 19.6 mph N/A   Clear
11:53 PM 24.1 °F 14.4 °F 3.9 °F 42% 30.20 in 10.0 mi NW 9.2 mph - N/A   Clear